Flag for U.S.A. Weather past 2 weeks in Wailuku, Hawaii, U.S.A.

Now
79 °F

Clear.


Feels Like: 82 °F
Forecast: 78 / 89 °F
Wind: 9 mph from Northeast

Location: Kahului Airport

Current Time: Aug 30, 2015 at 2:29:41 AM

Latest Report: Aug 30, 2015 at 1:54 AM


Visibility: 10 mi

Pressure: 29.91 "Hg

Humidity: 77%

Dew point: 71 °F

Location of WailukuLocation

Historic Weather in Wailuku — Graph

°F

Wailuku temperature yesterday

Maximum temperature yesterday: 90 °F (at 9:54 AM)
Minimum temperature yesterday: 74 °F (at 2:54 AM)
Average temperature yesterday: 82 °F

Past Weeks' High & Low Weather Summary

 TemperatureHumidityPressure
High97 °F (Aug 22, 12:54 PM)94% (Aug 18, 5:21 AM)30.00 "Hg (Aug 18, 5:21 AM)
Low72 °F (Aug 26, 5:54 AM)48% (Aug 22, 12:54 PM)29.80 "Hg (Aug 18, 4:54 PM)
Average81 °F74%29.91 "Hg
* Reported Aug 15 12:54 AM — Aug 30 12:54 AM, Wailuku, Weather by CustomWeather, © 2015

Note: Actual official high and low records may vary slightly from our data, if they occured in-between our weather recording intervals... More about our weather records

Advertising

Wailuku weather history for previous 24 hours

 ConditionsComfort  
Time TempWeatherWind HumidityBarometerVisibility
12:54 AM
Sun, Aug 30
79 °FClear.9 mph79%29.92 "Hg10 mi
11:54 PM
Sat, Aug 29
80 °FClear.8 mph76%29.93 "Hg10 mi
10:54 PM79 °FClear.9 mph79%29.94 "Hg10 mi
9:54 PM80 °FPassing clouds.8 mph76%29.94 "Hg10 mi
8:54 PM80 °FPassing clouds.8 mph76%29.92 "Hg10 mi
7:54 PM81 °FPassing clouds.14 mph74%29.90 "Hg10 mi
6:54 PM82 °FPassing clouds.12 mph72%29.89 "Hg10 mi
5:54 PM84 °FScattered clouds.16 mph63%29.86 "Hg10 mi
4:54 PM85 °FScattered clouds.20 mph65%29.85 "Hg10 mi
3:54 PM88 °FScattered clouds.25 mph59%29.85 "Hg10 mi
2:54 PM89 °FScattered clouds.23 mph55%29.87 "Hg10 mi
1:54 PM90 °FScattered clouds.24 mph54%29.88 "Hg10 mi
12:54 PM89 °FScattered clouds.25 mph57%29.90 "Hg10 mi
11:54 AM89 °FScattered clouds.22 mph57%29.91 "Hg10 mi
10:54 AM90 °FPassing clouds.20 mph54%29.92 "Hg10 mi
9:54 AM90 °FScattered clouds.17 mph52%29.92 "Hg10 mi
8:54 AM86 °FScattered clouds.13 mph55%29.91 "Hg10 mi
7:54 AM82 °FPassing clouds.5 mph65%29.91 "Hg10 mi
6:54 AM77 °FScattered clouds.3 mph77%29.90 "Hg10 mi
5:54 AM75 °FPassing clouds.7 mph85%29.89 "Hg10 mi
4:54 AM76 °FPassing clouds.6 mph82%29.88 "Hg10 mi
3:54 AM77 °FClear.5 mph79%29.88 "Hg10 mi
2:54 AM74 °FClear.3 mph88%29.89 "Hg10 mi
Weather by CustomWeather, © 2015

See weather overviewHow to use our weather pages